Parkersburg, WV

9:26 AM EST on February 24, 2018 (GMT -0500)
Wood County Wilson

Weather History for KPKB - April, 2014

Change the Weather History Date:

Thursday, April 17, 2014

  Actual Average Record
Temperature  
Mean Temperature 50 °F 55 °F  
Max Temperature 68 °F 67 °F 91 °F (1896)
Min Temperature 32 °F 43 °F 26 °F (1962)
Degree Days  
Heating Degree Days 15 11  
Month to date heating degree days 184 227  
Since 1 July heating degree days 4532 4688  
Cooling Degree Days 0 1  
Month to date cooling degree days 5 7  
Year to date cooling degree days 5 10  
Moisture  
Dew Point 23 °F    
Average Humidity 43    
Maximum Humidity 70    
Minimum Humidity 16    
Precipitation  
Precipitation 0.00 in 0.11 in 0.40 in (2006)
Month to date precipitation 1.96 1.83  
Year to date precipitation 7.37 11.21  
Sea Level Pressure  
Sea Level Pressure 30.39 in    
Wind  
Wind Speed 5 mph (SE)    
Max Wind Speed 14 mph    
Max Gust Speed 20 mph    
Visibility 10 miles    
Events      
T = Trace of Precipitation, MM = Missing Value Source: NWS Daily Summary

Daily Weather History Graph

Daily Weather History Graph

Search for Another Location

Airport or City:

Trip Planner

Search our weather history database for the weather conditions in past years. The results will help you decide how hot, cold, wet, or windy it might be!

Date:

Astronomy

Apr. 17, 2014 Rise Set
Actual Time 6:45 AM EDT 8:05 PM EDT
Civil Twilight 6:17 AM EDT 8:33 PM EDT
Nautical Twilight 5:44 AM EDT 9:06 PM EDT
Astronomical Twilight 5:09 AM EDT 9:42 PM EDT
Moon 10:49 PM EDT (4/17) 8:17 AM EDT (4/17)
Length of Visible Light 14h 15m
Length of Day
13h 19m
Waning Gibbous, 94% of the Moon is Illuminated
Apr 17
Waning Gibbous
Apr 22
Last Quarter
Apr 29
New
May 6
First Quarter
May 14
Full

Hourly Weather History & Observations

Time (EDT) Temp. Windchill Dew Point Humidity Pressure Visibility Wind Dir Wind Speed Gust Speed Precip Events Conditions
12:53 AM 39.0 °F 35.7 °F 19.0 °F 45% 30.38 in 10.0 mi East 4.6 mph - N/A   Clear
1:53 AM 37.9 °F 34.4 °F 19.9 °F 48% 30.39 in 10.0 mi East 4.6 mph - N/A   Clear
2:53 AM 36.0 °F 33.3 °F 21.0 °F 55% 30.39 in 10.0 mi East 3.5 mph - N/A   Clear
3:53 AM 35.1 °F 32.2 °F 21.9 °F 59% 30.40 in 10.0 mi East 3.5 mph - N/A   Clear
4:53 AM 34.0 °F 31.0 °F 23.0 °F 64% 30.41 in 10.0 mi East 3.5 mph - N/A   Clear
5:53 AM 33.1 °F 30.0 °F 24.1 °F 70% 30.42 in 10.0 mi East 3.5 mph - N/A   Clear
6:53 AM 34.0 °F 31.0 °F 25.0 °F 70% 30.43 in 10.0 mi ESE 3.5 mph - N/A   Clear
7:53 AM 36.0 °F 33.3 °F 26.1 °F 67% 30.45 in 10.0 mi East 3.5 mph - N/A   Clear
8:53 AM 41.0 °F 39.0 °F 28.0 °F 60% 30.47 in 10.0 mi ESE 3.5 mph - N/A   Clear
9:53 AM 48.9 °F - 21.0 °F 33% 30.47 in 10.0 mi SSE 8.1 mph - N/A   Clear
10:53 AM 52.0 °F - 21.9 °F 31% 30.48 in 10.0 mi South 6.9 mph - N/A   Clear
1:53 PM 63.0 °F - 25.0 °F 24% 30.42 in 10.0 mi East 5.8 mph - N/A   Clear
2:53 PM 66.0 °F - 26.1 °F 22% 30.40 in 10.0 mi Variable 6.9 mph 19.6 mph N/A   Clear
3:53 PM 66.9 °F - 25.0 °F 21% 30.37 in 10.0 mi SW 10.4 mph - N/A   Clear
4:53 PM 66.9 °F - 25.0 °F 21% 30.35 in 10.0 mi Variable 4.6 mph - N/A   Clear
5:53 PM 68.0 °F - 23.0 °F 18% 30.34 in 10.0 mi SSW 6.9 mph - N/A   Clear
6:53 PM 66.9 °F - 21.0 °F 17% 30.33 in 10.0 mi South 5.8 mph - N/A   Clear
7:53 PM 66.0 °F - 19.9 °F 17% 30.32 in 10.0 mi Calm Calm - N/A   Clear
8:53 PM 60.1 °F - 23.0 °F 24% 30.32 in 10.0 mi Calm Calm - N/A   Clear
9:53 PM 53.1 °F - 27.0 °F 37% 30.37 in 10.0 mi South 3.5 mph - N/A   Clear
10:53 PM 57.0 °F - 24.1 °F 28% 30.35 in 10.0 mi SSE 9.2 mph - N/A   Clear
11:53 PM 57.0 °F - 24.1 °F 28% 30.34 in 10.0 mi South 8.1 mph - N/A   Clear